Regional Weather Roundup
Issued by NWS Charleston, SC

Current Version | Previous Version | Text Only | Print | Product List | Glossary Off
Versions: 1 2 3 4 5 6 7 8 9 10 11 12 13 14 15 16 17 18 19 20 21 22 23 24 25 26 27 28 29 30 31 32 33 34 35 36 37 38 39 40 41 42 43 44 45 46 47 48 49 50

000
ASUS42 KCHS 040427
RWRCHS

REGIONAL WEATHER ROUNDUP
NATIONAL WEATHER SERVICE CHARLESTON SC
1200 AM EDT MON MAY 04 2015

NOTE: "FAIR" INDICATES FEW OR NO CLOUDS BELOW 12,000 FEET WITH NO
SIGNIFICANT WEATHER AND/OR OBSTRUCTIONS TO VISIBILITY.

NOT ALL STATIONS ARE QUALITY CONTROLLED BY THE NATIONAL
WEATHER SERVICE. USE DATA WITH CAUTION...ESPECIALLY
DEWPOINT OBSERVATIONS.

SCZ027-030-031-034>040-042>050-040500-
...SOUTHEAST SOUTH CAROLINA...

CITY           SKY/WX    TMP DP  RH WIND       PRES   REMARKS
N CHARLESTON   PTCLDY    64  58  80 S5        30.24S
WATERFRONT PRK   N/A     68 N/A N/A S6          N/A
MOUNT PLEASANT FAIR      61  61 100 MISG      30.24S
PINOPOLIS      NOT AVBL
MONCKS CORNER  FAIR      63  59  88 CALM      30.24S
SUMMERVILLE    MOCLDY    64  61  88 SE5       30.25R
BEAUFORT MCAS  CLEAR     65  58  78 CALM      30.23R
BEAUFORT ARPT  MOCLDY    63  61  94 CALM      30.23S
HILTON HEAD IS CLEAR     64  61  88 S3        30.25R
WALTERBORO     CLEAR     59  55  88 CALM      30.25R
ALLENDALE      FAIR      63  54  72 CALM      30.22S

...SOUTHERN MIDLANDS AND PEE DEE...

CITY           SKY/WX    TMP DP  RH WIND       PRES   REMARKS
GEORGETOWN     NOT AVBL
KINGSTREE      NOT AVBL
ORANGEBURG     PTCLDY    62  53  72 S5        30.23R
BARNWELL       FAIR      66  54  63 S3        30.23R
AIKEN          FAIR      61  50  67 S6        30.25R
MANNING        MOCLDY    59  54  82 CALM      30.24S
COLUMBIA       PTCLDY    67  52  58 E5        30.21R
SUMTER         CLEAR     64  53  69 SE2       30.22R
FLORENCE       CLEAR     63  58  83 S7        30.23S
MYRTLE BEACH   CLEAR     70  57  64 S9        30.27R
N MYRTLE BEACH CLEAR     68  59  73 S7        30.24S

$$

GAZ063-065-086>088-099>101-113>116-118-119-134>141-150-040500-
...SOUTHEAST GEORGIA...

CITY           SKY/WX    TMP DP  RH WIND       PRES   REMARKS
SAVANNAH ARPT  CLEAR     64  54  69 CALM      30.23R
HUNTER AAF     CLEAR     61  58  90 SE1       30.21R
FORT STEWART   CLEAR     59  53  79 CALM      30.21R
STATESBORO       N/A     57  53  85 CALM      30.23R
SYLVANIA       CLEAR     59  57  91 CALM      30.24R
CLAXTON        FAIR      57  54  88 CALM      30.23R

...CSRA...CENTRAL AND FAR SOUTHEAST GEORGIA...

CITY           SKY/WX    TMP DP  RH WIND       PRES   REMARKS
THOMSON        CLEAR     60  60  99 CALM      30.25S
AUGUSTA-BUSH   CLEAR     56  52  86 CALM      30.21R
AUGUSTA-DANIEL CLEAR     67  53  61 SE6       30.22R
SWAINSBORO     NOT AVBL
VIDALIA        CLEAR     64  52  63 S3        30.22S
EASTMAN        MOCLDY    64  56  76 SE3       30.24R
HAZLEHURST     FAIR      67  52  59 S5        30.21S
ALMA           CLEAR     62  50  64 SE3       30.22R
WAYCROSS       CLEAR     68  55  63 SE6       30.22S
JESUP          FAIR      59  54  82 CALM      30.23S
BAXLEY         FAIR      64  52  63 CALM      30.22S
BRUNSWICK      CLEAR     57  52  82 CALM      30.23F
SAINT SIMONS   CLEAR     69  54  58 SE3       30.22S

$$

SCZ027-028-034-036>038-045-046-048>050-GAZ119-141-040500-
...LAKE AND SUPPLEMENTAL COASTAL OBSERVATIONS...

STATION/POSITION TIME  TEMP    WIND        PRES    WAVE   SWELL
                       AIR SEA DIR/SP/G            HT/PER HT/PER/DIR
                 (UTC) (F)     (DEG/KT/KT) (MB)    (FT/S) (FT/S/D)
UPR LAKE MARION  NOT AVBL
WINYAH BAY       0300   69     160/  4     1023.0S
LAKE MURRAY      0400   70      90/  3/ 10 1022.4R
ACE BASIN NERRS  NOT AVBL
FORT PULASKI     0306   68 70  150/  2/  3 1023.9R
SAPELO ISLAND    0400   61     140/  4     1023.0S

$$

ANZ835-935-AMZ111-154-330-350-352-354-370-450-454-472-040500-
...C-MAN AND BUOY OBSERVATIONS...

STATION/POSITION TIME  TEMP    WIND        PRES    WAVE   SWELL
                       AIR SEA DIR/SP/G            HT/PER HT/PER/DIR
                 (UTC) (F)     (DEG/KT/KT) (MB)    (FT/S) (FT/S/D)
BUOY 41004       0350   73 73  140/ 12/ 14 1023.6S   2/10   2/10
BUOY 41008       0350   71 71  130/  4/  6 1023.9R   2/11   2/ 50/11
FOLLY BEACH CMAN 0400   69     160/  7/  7 1024.1R
CAPERS NEARSHORE 0308   70     160/  8/ 10 1023.9
FRIPP NEARSHORE  0300   71     170/  8/  8 1022.9R


STATION/POSITION TIME  TEMP    WIND        PRES    WAVE   SWELL
                       AIR SEA DIR/SP/G            HT/PER HT/PER/DIR
                 (UTC) (F)     (DEG/KT/KT) (MB)    (FT/S) (FT/S/D)
5E ST. MARYS GA  0321      72                N/A     2/13   2/ 80/13
FRYING PAN BUOY  0350   74 73  180/  8/ 10 1025.2R   4/11   3/ 80/11
BUOY 41025       0350   63 60  270/  6/  8 1024.2R   4/12   3/ 70/12
CAPE LOOKOUT NC  0400   66     190/  4/  5 1024.3R
BUOY 41002       0350   68 70   80/ 10/ 12 1024.8R   7/13   7/ 20/13
BUOY 41010       0320   73 78   70/ 17/ 19 1022.6F
ST AUGUSTINE FL  0400   71 72   80/  4/  4 1023.9S


$$



USA.gov is the U.S. government's official web portal to all federal, state and local government web resources and services.